This is the latest recevied weather packets stored in our database for station/object KE8ZLU. If no packets are shown the sender has not sent any weather packets the latest 10 day(s).
| Time | Temp. | Humidity | Pressure | Rain* | Wind** | Luminosity | Snow |
|---|---|---|---|---|---|---|---|
| 1777901413 | 14.44° C | 68% | 1006 hPa | 0 mm | - | 345 W/m² | - |
| 1777901111 | 13.89° C | 69% | 1006 hPa | 0 mm | - | 322 W/m² | - |
| 1777900809 | 12.78° C | 74% | 1005.7 hPa | 0 mm | - | 188 W/m² | - |
| 1777900506 | 12.78° C | 74% | 1006.1 hPa | 0 mm | - | 188 W/m² | - |
| 1777900203 | 12.78° C | 74% | 1006.3 hPa | 0 mm | - | 188 W/m² | - |
| 1777899899 | 12.78° C | 74% | 1006.1 hPa | 0 mm | - | 188 W/m² | - |
| 1777899595 | 12.78° C | 74% | 1006.1 hPa | 0 mm | - | 188 W/m² | - |
| 1777899293 | 12.78° C | 74% | 1006.1 hPa | 0 mm | - | 188 W/m² | - |
| 1777898990 | 12.78° C | 74% | 1006.2 hPa | 0 mm | - | 188 W/m² | - |
| 1777898687 | 12.78° C | 74% | 1006.2 hPa | 0 mm | - | 188 W/m² | - |
| 1777898384 | 12.78° C | 74% | 1006.2 hPa | 0 mm | - | 188 W/m² | - |
| 1777898082 | 11.67° C | 77% | 1006.3 hPa | 0 mm | - | 137 W/m² | - |
| 1777897778 | 11.67° C | 77% | 1006.2 hPa | 0 mm | - | 137 W/m² | - |
| 1777897475 | 11.67° C | 77% | 1006.6 hPa | 0 mm | - | 137 W/m² | - |
| 1777897171 | 11.67° C | 77% | 1006.2 hPa | 0 mm | - | 137 W/m² | - |
| 1777896867 | 10.56° C | 79% | 1006.2 hPa | 0 mm | - | 95 W/m² | - |
| 1777896564 | 10.56° C | 79% | 1006.2 hPa | 0 mm | - | 95 W/m² | - |
| 1777896261 | 10.56° C | 79% | 1006.2 hPa | 0 mm | - | 95 W/m² | - |
| 1777895959 | 10.56° C | 79% | 1006.3 hPa | 0 mm | - | 95 W/m² | - |
| 1777895657 | 10.56° C | 80% | 1006.1 hPa | 0 mm | - | 83 W/m² | - |
| 1777895354 | 10° C | 80% | 1006.4 hPa | 0 mm | - | 74 W/m² | - |
| 1777895052 | 10° C | 80% | 1006.4 hPa | 0 mm | - | 72 W/m² | - |
| 1777894749 | 10° C | 81% | 1006 hPa | 0 mm | - | 63 W/m² | - |
| 1777894445 | 10° C | 81% | 1006.1 hPa | 0 mm | - | 54 W/m² | - |
| 1777894143 | 10° C | 81% | 1006 hPa | 0 mm | - | 48 W/m² | - |
* Rain latest hour (hover to see other rain measurements)
** Current wind speed in m/s (hover to see current wind gust speed)